Regional Weather Roundup
Issued by NWS

Home | Current Version | Previous Version | Text Only | Print | Product List | Glossary Off
Versions: 1 2 3 4 5 6 7 8 9 10 11 12 13 14 15 16 17 18 19 20 21 22 23 24 25 26 27 28 29 30 31 32 33 34 35 36 37 38 39 40 41 42 43 44 45 46 47 48 49 50

000
ASUS45 KCYS 222110
RWRWY

WYOMING REGIONAL WEATHER ROUNDUP
NATIONAL WEATHER SERVICE CHEYENNE WY
200 PM MST SUN JAN 22 2017

NOTE:  "FAIR" INDICATES FEW OR NO CLOUDS BELOW 12,000 FEET
WITH NO SIGNIFICANT WEATHER AND/OR OBSTRUCTIONS TO VISIBILITY.

WYZ001-222200-
YELLOWSTONE NATIONAL PARK

CITY           SKY/WX    TMP DP  RH WIND       PRES   REMARKS
LK YELLOWSTONE   N/A     23  16  74 VRB3      29.76F
W YELLOWSTONE  NOT AVBL

$$
WYZ002>013-054>058-071-098>099-222200-
NORTHERN WYOMING

CITY           SKY/WX    TMP DP  RH WIND       PRES   REMARKS
JACKSON        PTSUNNY   27  18  69 SW9       29.77F WCI  17
CODY           FAIR      28  17  63 NE7       29.77F WCI  21
GREYBULL       FAIR      23  14  68 CALM      29.83F
WORLAND        FAIR      28  18  66 CALM      29.82F
SHERIDAN       FAIR      38  23  55 SE12      29.80F WCI  30
BUFFALO        FAIR      33  21  61 E7        29.80F WCI  27
GILLETTE       FAIR      40  22  48 SW6       29.83S
HULETT         FAIR      34  23  64 SW9       29.84S WCI  26
NEWCASTLE      FAIR      32  23  69 CALM      29.87S

$$
WYZ014>020-022>026-101>103-222200-
CENTRAL WYOMING

CITY           SKY/WX    TMP DP  RH WIND       PRES   REMARKS
BIG PINEY      FAIR      13   9  84 SE5       29.84F WCI   5
PINEDALE       FAIR      19  12  73 SE6       29.85F WCI  11
DUBOIS         NOT AVBL
LANDER         FAIR      30  16  56 N6        29.79F WCI  24
RIVERTON       MIX PCPN N/A N/A N/A N8        29.81F
CASPER         FAIR      35  17  47 SW18G30   29.86F WCI  24
DOUGLAS        FAIR      41  13  31 W16       29.87S

$$
WYZ021-027>030-104>119-222200-
SOUTHERN WYOMING

CITY           SKY/WX    TMP DP  RH WIND       PRES   REMARKS
EVANSTON       CLOUDY    27  12  53 CALM      29.79F
ROCK SPRINGS   FAIR      25  15  66 SE9       29.84F WCI  15
RAWLINS        FAIR      25  15  66 S16       29.90F WCI  12
LARAMIE        FAIR      27  14  58 SW20      29.86F WCI  13
CHEYENNE       FAIR      37   9  31 W18G31    29.87F WCI  27
TORRINGTON     FAIR      44  12  27 W22G31    29.87F

$$



USA.gov is the U.S. government's official web portal to all federal, state and local government web resources and services.